TimeCST,TemperatureF,Dew PointF,Humidity,Sea Level PressureIn,VisibilityMPH,Wind Direction,Wind SpeedMPH,Gust SpeedMPH,PrecipitationIn,Events,Conditions,WindDirDegrees,DateUTC
12:53 AM,46.9,45.0,93,30.26,10.0,Calm,Calm,-,N/A,,Overcast,0,2013-01-20 06:53:00
1:53 AM,46.0,45.0,96,30.26,10.0,Calm,Calm,-,N/A,,Overcast,0,2013-01-20 07:53:00
2:53 AM,43.0,42.1,97,30.25,10.0,Calm,Calm,-,N/A,,Scattered Clouds,0,2013-01-20 08:53:00
3:53 AM,41.0,39.9,96,30.25,7.0,Calm,Calm,-,N/A,,Clear,0,2013-01-20 09:53:00
4:53 AM,39.0,37.9,96,30.25,7.0,Calm,Calm,-,N/A,,Clear,0,2013-01-20 10:53:00
5:53 AM,37.9,37.0,97,30.26,8.0,Calm,Calm,-,N/A,,Clear,0,2013-01-20 11:53:00
6:53 AM,37.0,36.0,96,30.26,8.0,Calm,Calm,-,N/A,,Clear,0,2013-01-20 12:53:00
7:53 AM,44.1,42.1,93,30.27,10.0,Calm,Calm,-,N/A,,Clear,0,2013-01-20 13:53:00
8:53 AM,55.0,46.0,72,30.27,10.0,Calm,Calm,-,N/A,,Clear,0,2013-01-20 14:53:00
9:53 AM,61.0,44.1,54,30.27,10.0,NNW,6.9,-,N/A,,Clear,340,2013-01-20 15:53:00
10:53 AM,63.0,43.0,48,30.25,10.0,Variable,4.6,-,N/A,,Clear,0,2013-01-20 16:53:00
11:53 AM,64.0,42.1,45,30.21,10.0,Variable,4.6,-,N/A,,Clear,0,2013-01-20 17:53:00
12:53 PM,64.9,39.9,40,30.18,10.0,West,4.6,-,N/A,,Clear,260,2013-01-20 18:53:00
1:53 PM,66.9,39.0,36,30.15,10.0,Calm,Calm,-,N/A,,Clear,0,2013-01-20 19:53:00
2:53 PM,66.0,39.0,37,30.14,10.0,Calm,Calm,-,N/A,,Clear,0,2013-01-20 20:53:00
3:53 PM,68.0,39.0,35,30.14,10.0,Calm,Calm,-,N/A,,Clear,0,2013-01-20 21:53:00
4:53 PM,64.0,43.0,46,30.14,10.0,Calm,Calm,-,N/A,,Clear,0,2013-01-20 22:53:00
5:53 PM,51.1,45.0,80,30.15,10.0,Calm,Calm,-,N/A,,Clear,0,2013-01-20 23:53:00
6:53 PM,48.0,44.1,86,30.15,10.0,Calm,Calm,-,N/A,,Clear,0,2013-01-21 00:53:00
7:53 PM,44.1,42.1,93,30.17,10.0,Calm,Calm,-,N/A,,Clear,0,2013-01-21 01:53:00
8:53 PM,42.1,41.0,96,30.17,7.0,Calm,Calm,-,N/A,,Clear,0,2013-01-21 02:53:00
9:53 PM,42.1,39.9,92,30.17,6.0,Calm,Calm,-,N/A,,Clear,0,2013-01-21 03:53:00
10:53 PM,41.0,39.0,93,30.17,6.0,Calm,Calm,-,N/A,,Clear,0,2013-01-21 04:53:00
11:53 PM,39.0,37.0,93,30.16,6.0,Calm,Calm,-,N/A,,Clear,0,2013-01-21 05:53:00